Stündliche Wetter Labody

Heute, 14 Mai, Freitag

Zeit Temperatur Niederschläge Wind Luftdruck Luftfeuchtigkeit
00:00 +8°C° 0.7 mm 5 m/S 734 mmHg 96%
01:00 +8°C° 0.7 mm 5 m/S 734 mmHg 96%
02:00 +8°C° 0.7 mm 5 m/S 733 mmHg 97%
03:00 +8°C° 0.9 mm 5 m/S 733 mmHg 96%
04:00 +8°C° 0.9 mm 5 m/S 733 mmHg 96%
05:00 +8°C° 0.9 mm 6 m/S 733 mmHg 95%
06:00 +8°C° 0.2 mm 6 m/S 733 mmHg 95%
07:00 +9°C° 0.2 mm 6 m/S 733 mmHg 95%
08:00 +9°C° 0.2 mm 6 m/S 733 mmHg 94%
09:00 +9°C° 0.5 mm 6 m/S 734 mmHg 94%
10:00 +10°C° 0.5 mm 6 m/S 734 mmHg 94%
11:00 +10°C° 0.5 mm 6 m/S 734 mmHg 95%
12:00 +12°C° 0 mm 5 m/S 734 mmHg 92%
13:00 +13°C° 0 mm 5 m/S 734 mmHg 89%
14:00 +14°C° 0 mm 5 m/S 734 mmHg 86%
15:00 +15°C° 0.1 mm 4 m/S 734 mmHg 83%
16:00 +16°C° 0.1 mm 3 m/S 734 mmHg 80%
17:00 +17°C° 0.1 mm 3 m/S 734 mmHg 78%
18:00 +16°C° 0.3 mm 2 m/S 733 mmHg 82%
19:00 +15°C° 0.3 mm 2 m/S 733 mmHg 85%
20:00 +13°C° 0.3 mm 2 m/S 733 mmHg 89%
21:00 +13°C° 0.1 mm 2 m/S 733 mmHg 90%
22:00 +12°C° 0.1 mm 2 m/S 734 mmHg 91%
23:00 +12°C° 0.1 mm 1 m/S 734 mmHg 91%

Morgen, 15 Mai, Samstag

Zeit Temperatur Niederschläge Wind Luftdruck Luftfeuchtigkeit
00:00 +11°C° 0 mm 1 m/S 734 mmHg 91%
01:00 +11°C° 0 mm 1 m/S 733 mmHg 91%
02:00 +11°C° 0 mm 1 m/S 733 mmHg 91%
03:00 +11°C° 0.1 mm 1 m/S 734 mmHg 92%
04:00 +10°C° 0.1 mm 0 m/S 734 mmHg 92%
05:00 +10°C° 0.1 mm 0 m/S 734 mmHg 92%
06:00 +11°C° 0.2 mm 0 m/S 734 mmHg 90%
07:00 +14°C° 0.2 mm 1 m/S 734 mmHg 87%
08:00 +15°C° 0.2 mm 1 m/S 734 mmHg 84%
09:00 +16°C° 0.4 mm 1 m/S 734 mmHg 80%
10:00 +17°C° 0.4 mm 2 m/S 734 mmHg 76%
11:00 +18°C° 0.4 mm 2 m/S 734 mmHg 71%
12:00 +19°C° 0.6 mm 3 m/S 734 mmHg 71%
13:00 +19°C° 0.6 mm 3 m/S 734 mmHg 70%
14:00 +19°C° 0.6 mm 3 m/S 734 mmHg 69%
15:00 +19°C° 1.4 mm 3 m/S 735 mmHg 74%
16:00 +18°C° 1.4 mm 3 m/S 735 mmHg 79%
17:00 +17°C° 1.4 mm 3 m/S 735 mmHg 84%
18:00 +16°C° 0.6 mm 3 m/S 735 mmHg 85%
19:00 +15°C° 0.6 mm 2 m/S 735 mmHg 86%
20:00 +14°C° 0.6 mm 2 m/S 735 mmHg 87%
21:00 +14°C° 0 mm 2 m/S 736 mmHg 88%
22:00 +13°C° 0 mm 2 m/S 736 mmHg 90%
23:00 +12°C° 0 mm 2 m/S 736 mmHg 91%

übermorgen, 16 Mai, Sonntag

Zeit Temperatur Niederschläge Wind Luftdruck Luftfeuchtigkeit
00:00 +12°C° 0 mm 2 m/S 736 mmHg 92%
01:00 +10°C° 0 mm 2 m/S 737 mmHg 93%
02:00 +10°C° 0 mm 2 m/S 737 mmHg 94%
03:00 +10°C° 0 mm 2 m/S 737 mmHg 94%
04:00 +10°C° 0 mm 2 m/S 737 mmHg 94%
05:00 +9°C° 0 mm 2 m/S 737 mmHg 95%
06:00 +12°C° 0 mm 2 m/S 738 mmHg 91%
07:00 +13°C° 0 mm 2 m/S 738 mmHg 88%
08:00 +15°C° 0 mm 2 m/S 738 mmHg 84%
09:00 +16°C° 0 mm 2 m/S 738 mmHg 79%
10:00 +17°C° 0 mm 2 m/S 738 mmHg 74%
11:00 +18°C° 0 mm 3 m/S 738 mmHg 68%
12:00 +19°C° 0 mm 3 m/S 738 mmHg 66%
13:00 +19°C° 0 mm 3 m/S 738 mmHg 63%
14:00 +19°C° 0 mm 3 m/S 738 mmHg 60%
15:00 +19°C° 0 mm 3 m/S 738 mmHg 62%
16:00 +19°C° 0 mm 3 m/S 737 mmHg 65%
17:00 +19°C° 0 mm 3 m/S 737 mmHg 67%
18:00 +18°C° 0 mm 3 m/S 737 mmHg 71%
19:00 +17°C° 0 mm 3 m/S 737 mmHg 76%
20:00 +16°C° 0 mm 3 m/S 737 mmHg 81%
21:00 +14°C° 0.5 mm 3 m/S 736 mmHg 84%
22:00 +13°C° 0.5 mm 3 m/S 736 mmHg 86%
23:00 +13°C° 0.5 mm 3 m/S 736 mmHg 89%

17 Mai, Montag

Zeit Temperatur Niederschläge Wind Luftdruck Luftfeuchtigkeit
00:00 +12°C° 0.2 mm 3 m/S 736 mmHg 91%
01:00 +12°C° 0.2 mm 3 m/S 736 mmHg 93%
02:00 +13°C° 0.2 mm 2 m/S 736 mmHg 95%
03:00 +12°C° 0 mm 3 m/S 736 mmHg 96%
04:00 +12°C° 0 mm 3 m/S 736 mmHg 96%
05:00 +12°C° 0 mm 3 m/S 736 mmHg 96%
06:00 +12°C° 0.4 mm 3 m/S 736 mmHg 96%
07:00 +13°C° 0.4 mm 3 m/S 736 mmHg 95%
08:00 +14°C° 0.4 mm 4 m/S 736 mmHg 95%
09:00 +14°C° 0.5 mm 3 m/S 736 mmHg 94%
10:00 +14°C° 0.5 mm 3 m/S 736 mmHg 93%
11:00 +14°C° 0.5 mm 3 m/S 736 mmHg 93%
12:00 +15°C° 0.5 mm 2 m/S 736 mmHg 92%
13:00 +14°C° 0.5 mm 2 m/S 736 mmHg 91%
14:00 +14°C° 0.5 mm 1 m/S 736 mmHg 91%
15:00 +15°C° 0 mm 1 m/S 736 mmHg 89%
16:00 +15°C° 0 mm 1 m/S 736 mmHg 87%
17:00 +15°C° 0 mm 2 m/S 736 mmHg 85%
18:00 +15°C° 0 mm 2 m/S 736 mmHg 88%
19:00 +14°C° 0 mm 2 m/S 736 mmHg 91%
20:00 +13°C° 0 mm 1 m/S 735 mmHg 94%
21:00 +12°C° 0 mm 2 m/S 735 mmHg 94%
22:00 +12°C° 0 mm 2 m/S 735 mmHg 94%
23:00 +10°C° 0 mm 2 m/S 735 mmHg 94%

18 Mai, Dienstag

Zeit Temperatur Niederschläge Wind Luftdruck Luftfeuchtigkeit
00:00 +10°C° 0 mm 2 m/S 735 mmHg 94%
01:00 +9°C° 0 mm 2 m/S 735 mmHg 95%
02:00 +10°C° 0 mm 1 m/S 735 mmHg 95%
03:00 +10°C° 0 mm 1 m/S 734 mmHg 95%
04:00 +10°C° 0 mm 1 m/S 734 mmHg 95%
05:00 +10°C° 0 mm 1 m/S 734 mmHg 95%
06:00 +12°C° 0 mm 1 m/S 734 mmHg 90%
07:00 +13°C° 0 mm 1 m/S 734 mmHg 85%
08:00 +15°C° 0 mm 1 m/S 734 mmHg 80%
09:00 +16°C° 0 mm 1 m/S 734 mmHg 74%
10:00 +18°C° 0 mm 1 m/S 734 mmHg 69%
11:00 +19°C° 0 mm 1 m/S 734 mmHg 63%
12:00 +17°C° 0.5 mm 2 m/S 734 mmHg 68%
13:00 +16°C° 0.5 mm 3 m/S 734 mmHg 74%
14:00 +15°C° 0.5 mm 4 m/S 734 mmHg 79%
15:00 +14°C° 0.5 mm 4 m/S 734 mmHg 84%
16:00 +13°C° 0.5 mm 4 m/S 734 mmHg 89%
17:00 +12°C° 0.5 mm 4 m/S 734 mmHg 94%
18:00 +11°C° 0 mm 3 m/S 735 mmHg 94%
19:00 +11°C° 0 mm 3 m/S 735 mmHg 95%
20:00 +10°C° 0 mm 3 m/S 735 mmHg 95%
21:00 +10°C° 0 mm 3 m/S 735 mmHg 95%
22:00 +9°C° 0 mm 3 m/S 735 mmHg 96%
23:00 +8°C° 0 mm 3 m/S 736 mmHg 96%

19 Mai, Mittwoch

Zeit Temperatur Niederschläge Wind Luftdruck Luftfeuchtigkeit
00:00 +8°C° 0 mm 2 m/S 736 mmHg 96%
01:00 +8°C° 0 mm 2 m/S 736 mmHg 96%
02:00 +7°C° 0 mm 2 m/S 736 mmHg 96%
03:00 +7°C° 0 mm 2 m/S 736 mmHg 96%
04:00 +7°C° 0 mm 2 m/S 736 mmHg 97%
05:00 +7°C° 0 mm 2 m/S 737 mmHg 98%
06:00 +9°C° 0 mm 2 m/S 737 mmHg 93%
07:00 +10°C° 0 mm 3 m/S 737 mmHg 88%
08:00 +12°C° 0 mm 3 m/S 738 mmHg 83%
09:00 +13°C° 0.1 mm 3 m/S 738 mmHg 78%
10:00 +14°C° 0.1 mm 3 m/S 738 mmHg 73%
11:00 +16°C° 0.1 mm 3 m/S 739 mmHg 67%
12:00 +16°C° 0.2 mm 3 m/S 739 mmHg 67%
13:00 +16°C° 0.2 mm 3 m/S 739 mmHg 66%
14:00 +16°C° 0.2 mm 3 m/S 739 mmHg 65%
15:00 +16°C° 0.1 mm 3 m/S 739 mmHg 68%
16:00 +16°C° 0.1 mm 3 m/S 740 mmHg 70%
17:00 +16°C° 0.1 mm 3 m/S 740 mmHg 72%
18:00 +15°C° 0.1 mm 2 m/S 740 mmHg 77%
19:00 +13°C° 0.1 mm 2 m/S 740 mmHg 83%
20:00 +12°C° 0.1 mm 1 m/S 741 mmHg 88%
21:00 +12°C° 0 mm 1 m/S 741 mmHg 88%
22:00 +11°C° 0 mm 1 m/S 741 mmHg 88%
23:00 +11°C° 0 mm 1 m/S 741 mmHg 88%
Mehr zeigen

Wir brauchen deine Erlaubnis

Meteoprog und unser Service Anbieter werden persönliche Daten aufbewahren, so wie Cookies, Geräte Bezeichnung oder ähnliche Technologien von deinem Gerät und Prozess, so wie Persönliche Daten Inhalte und Werbungen, genauso wie social Media und den Verkehr zu analysieren.

  • Aufbewahrung und/oder Zugang zu deiner Geräte Informationen.

    Cookies, Geräte Bezeichnung oder andere Informationen, können aufbewahrt oder Zugang zu deinem Gerät erhalten, für den Grund, der oben angegeben wird.

  • Personalisierte Werbung und Inhalte, Messungen, Einblick in das Publikum und Produkt Entwicklung.

    Werbungen und Inhalte können personalisiert werden, basierend auf ein Profil. Mehr Daten können besser personalisierte Werbungen und Inhalte hinzufügen. Werbung und Inhalte können gezeigt und gemessen werden. Einblicke über das Publikum, welche die Werbung gesehen haben und den Inhalt, können abgeleitet werden. So wie Daten können genutzt werden, um es zu verbessern oder die Benutzer Erfahrung zu verbessern das System und die Software.

Wenn du “Ich stimme zu” klickst, erlaubst du uns, die Cookies zu benutzen die Geräte Bezeichnung, den Web oder ähnliche Technologien zu benutzen. Deine Settings, können in deinem Gerät bei deinem Browser geändert werden.

Für den bestimmten Zweck, berechtigten Interessen beruhen darauf, mehr als auf den Inhalt. Du kannst mehr darüber in unseren Privaten und Cookie Politik lesen.